Regional Weather Roundup
Issued by NWS Upton, NY

Current Version | Previous Version | Text Only | Print | Product List | Glossary On
Versions: 1 2 3 4 5 6 7 8 9 10 11 12 13 14 15 16 17 18 19 20 21 22 23 24 25 26 27 28 29 30 31 32 33 34 35 36 37 38 39 40 41 42 43 44 45 46 47 48 49 50
000
ASUS41 KOKX 300204
RWROKX

REGIONAL WEATHER ROUNDUP
NATIONAL WEATHER SERVICE NEW YORK NY
1000 PM EDT FRI APR 29 2016

NOTE: "FAIR" INDICATES FEW OR NO CLOUDS BELOW 12,000 FEET WITH NO
SIGNIFICANT WEATHER AND/OR OBSTRUCTIONS TO VISIBILITY.

NYZ071-072-176-178-NJZ106-104-300300-
NEW YORK CITY METRO AREA


CITY           SKY/WX    TMP DP  RH WIND       PRES   REMARKS
CENTRAL PARK   CLOUDY    49  36  61 E6        30.17R
LAGUARDIA APRT CLOUDY    50  38  63 SE3       30.15R
KENNEDY INTL   CLOUDY    48  38  68 E7        30.16R
NEWARK/LIBERTY LGT RAIN  49  37  63 E5        30.15R
BRNX BOT. GARD   N/A     45  41  87 NE2       30.16S
TETERBORO      RAIN      49  41  74 SE3       30.15R
$$

NYZ177-179-078>081-300300-
LONG ISLAND NEW YORK

CITY           SKY/WX    TMP DP  RH WIND       PRES   REMARKS
FARMINGDALE    CLOUDY    47  39  74 NE5       30.15R
ISLIP          CLOUDY    47  37  68 NE3       30.15R
SHIRLEY        LGT RAIN  46  39  76 CALM      30.17R
RIVERHEAD        N/A     46  41  81 CALM      30.15R
WESTHAMPTON    LGT RAIN  44  41  89 E5        30.16R
EAST HAMPTON   CLOUDY    45  39  79 E7        30.13R
MONTAUK POINT    N/A     46  37  71 E5        30.15R
$$

NYZ052-065-067-300300-
HUDSON VALLEY

CITY           SKY/WX    TMP DP  RH WIND       PRES   REMARKS
WHITE PLAINS   LGT RAIN  46  40  79 NE6       30.15R
NEWBURGH       LGT RAIN  46  41  81 CALM      30.16R FOG
MONTGOMERY     LGT RAIN  45  41  86 CALM      30.16R
POUGHKEEPSIE   RAIN      49  42  77 CALM      30.15R
ALBANY         CLOUDY    53  39  59 W7        30.11R
$$

NJZ001-105-106-008-010-013-015-019>022-104-300300-
NEW JERSEY

CITY           SKY/WX    TMP DP  RH WIND       PRES   REMARKS
NEWARK/LIBERTY LGT RAIN  49  37  63 E5        30.15R
TETERBORO      RAIN      49  41  74 SE3       30.15R
CALDWELL       LGT RAIN  47  42  83 CALM      30.16R
MORRISTOWN     LGT RAIN  46  39  76 CALM      30.16R
SOMERVILLE     CLOUDY    46  39  76 N3        30.14R
SUSSEX         LGT RAIN  44  41  89 CALM      30.16R
ANDOVER          N/A     43  39  86 CALM      30.15R
TRENTON        CLOUDY    47  37  68 NE5       30.13R
MILLVILLE      CLOUDY    48  43  82 NE8       30.10R
ATLANTIC CITY  CLOUDY    47  44  90 N9        30.10R
WRIGHTSTOWN    CLOUDY    45  43  91 N6        30.10R
TOMS RIVER     CLOUDY    46  41  81 E8        30.10F
BELMAR         CLOUDY    46  44  93 E7        30.13R
$$

PAZ047>061-062-071-300300-
EASTERN PENNSYLVANIA

CITY           SKY/WX    TMP DP  RH WIND       PRES   REMARKS
PHILADELPHIA   CLOUDY    49  40  71 NE7       30.13R
ALLENTOWN      LGT RAIN  45  38  76 NE8       30.15R
SCRANTON       CLOUDY    44  41  89 CALM      30.11S
$$

CTZ002-004>006-009-010-012-RIZ004-006-007-MAZ004-011-015-300300-
SOUTHERN NEW ENGLAND
 IN CT

CITY           SKY/WX    TMP DP  RH WIND       PRES   REMARKS
BRADLEY INTL   CLOUDY    50  27  40 S12       30.13R
HARTFORD       CLOUDY    50  33  52 S8        30.15R
DANBURY        LGT RAIN  47  36  65 SE5       30.16R
WTRBRY/OXFORD    N/A     45  28  53 SW3       30.17R
BRIDGEPORT     CLOUDY    49  39  68 CALM      30.17R
MERIDEN        CLOUDY    48  33  56 S3        30.16R
NEW HAVEN      CLOUDY    47  37  68 VRB3      30.17R
CHESTER        FAIR      46  36  66 CALM      30.14R
GROTON         CLOUDY    47  43  86 E9G18     30.14R
WILLIMANTIC    CLOUDY    49  32  52 SE3       30.15R

 IN RI

CITY           SKY/WX    TMP DP  RH WIND       PRES   REMARKS
PROVIDENCE     CLOUDY    45  35  68 SE3       30.16R
BLOCK ISLAND   CLOUDY    45  36  70 E9        30.15R
WESTERLY       CLOUDY    47  35  63 E8        30.16R

 IN MA

CITY           SKY/WX    TMP DP  RH WIND       PRES   REMARKS
BOSTON         PTCLDY    46  32  58 S7        30.16R
WORCESTER      CLOUDY    45  31  58 S12       30.12R
WESTFIELD      CLOUDY    51  34  52 S14       30.12R
PROVINCETOWN   CLOUDY    43  33  68 SE8       30.15F
NANTUCKET      PTCLDY    44  34  67 E9        30.14F
$$

ANZ330-335-338-340-345-350-353-355-300300-
COASTAL MARINE OBSERVATIONS


STATION/POSITION TIME  SKY/WX   TEMP    WIND        PRES    VSBY  WAVE
                                AIR SEA DIR/SP/G                  HT/PER
                 (UTC)          (F)     (DEG/KT/KT) (MB)    (MI)  (FT/S)
NY HARB ENTRANCE 0050            48 51   80/ 14/ 16 1019.3          6/ 7
20S FIRE ISLAND  0050            47 48   70/ 14/ 17 1018.7          7/ 8
GREAT SOUTH BAY  0100            48 57   80/ 12/ 16   N/A
23 SSW MONTAUK P 0150            46 47   90/ 14/ 17 1019.6          6/ 7
15 E BARNEGAT LI 0122               51                N/A           6/ 8
HUDSON CANYON    0050            48 50              1017.3          6/ 8
KINGS POINT      0100            48 53              1020.0
EXECUTION ROCKS  NOT AVBL
CENTRAL LI SOUND 0115            48     100/  8/ 10   N/A           1/ 4
EASTERN LI SOUND 0100            47 47   90/ 12/ 16   N/A
ROBBINS REEF     0100            49                 1019.3
$$


>>>>>>>>>>>>>>>>>>>>>>>>>>>> KEY <<<<<<<<<<<<<<<<<<<<<<<<<<<
>                                                          <
>     SKY/WX - SKY CONDITION/PRESENT WEATHER               <
>     TMP    - TEMPERATURE IN FAHRENHEIT                   <
>     DP     - DEWPOINT IN FAHRENHEIT                      <
>     RH     - RELATIVE HUMIDITY IN PERCENT                <
>     WIND   - DIRECTION AND SPEED IN MPH                  <
>     PRES   - MEAN SEA LEVEL PRESSURE IN INCHES OF HG     <
>     WCI    - WIND CHILL INDEX                            <
>     VSB    - VISIBILITY IN MILES                         <
>     HX     - HEAT INDEX                                  <
>     TC     - TEMPERATURE IN CELSIUS                      <
>     VRB    - VARIABLE WIND DIRECTION                     <
>                                                          <
>>>>>>>>>>>>>>>>>>>>>>>>>>>> KEY <<<<<<<<<<<<<<<<<<<<<<<<<<<





USA.gov is the U.S. government's official web portal to all federal, state and local government web resources and services.